TimeEDT,TemperatureF,Dew PointF,Humidity,Sea Level PressureIn,VisibilityMPH,Wind Direction,Wind SpeedMPH,Gust SpeedMPH,PrecipitationIn,Events,Conditions,WindDirDegrees,DateUTC
12:15 AM,44.6,37.4,76,30.05,10.0,WNW,5.8,-,N/A,,Unknown,300,2013-05-13 04:15:00
12:35 AM,44.6,35.6,71,30.06,10.0,WNW,4.6,-,N/A,,Clear,290,2013-05-13 04:35:00
12:55 AM,42.8,39.2,87,30.06,10.0,SSE,5.8,-,N/A,,Clear,150,2013-05-13 04:55:00
1:15 AM,44.6,35.6,71,30.06,10.0,Calm,Calm,-,N/A,,Partly Cloudy,0,2013-05-13 05:15:00
1:35 AM,44.6,37.4,76,30.06,10.0,NW,4.6,-,N/A,,Partly Cloudy,320,2013-05-13 05:35:00
1:55 AM,42.8,37.4,81,30.05,10.0,SSE,4.6,-,N/A,,Clear,160,2013-05-13 05:55:00
2:15 AM,42.8,37.4,81,30.05,10.0,Calm,Calm,-,N/A,,Clear,0,2013-05-13 06:15:00
2:35 AM,39.2,37.4,93,30.05,10.0,Calm,Calm,-,N/A,,Clear,0,2013-05-13 06:35:00
2:55 AM,39.2,37.4,93,30.06,10.0,Calm,Calm,-,N/A,,Clear,0,2013-05-13 06:55:00
3:15 AM,41.0,37.4,87,30.06,10.0,Calm,Calm,-,N/A,,Clear,0,2013-05-13 07:15:00
3:35 AM,39.2,39.2,100,30.06,10.0,Calm,Calm,-,N/A,,Clear,0,2013-05-13 07:35:00
3:55 AM,39.2,39.2,100,30.06,10.0,Calm,Calm,-,N/A,,Clear,0,2013-05-13 07:55:00
4:15 AM,39.2,39.2,100,30.06,10.0,Calm,Calm,-,N/A,,Clear,0,2013-05-13 08:15:00
4:35 AM,37.4,35.6,93,30.06,10.0,NW,3.5,-,N/A,,Clear,320,2013-05-13 08:35:00
4:55 AM,37.4,37.4,100,30.07,10.0,SE,3.5,-,N/A,,Clear,140,2013-05-13 08:55:00
5:15 AM,37.4,37.4,100,30.08,10.0,Calm,Calm,-,N/A,,Clear,0,2013-05-13 09:15:00
5:35 AM,42.8,35.6,76,30.08,10.0,WNW,5.8,-,N/A,,Clear,300,2013-05-13 09:35:00
5:55 AM,42.8,35.6,76,30.09,10.0,Calm,Calm,-,N/A,,Clear,0,2013-05-13 09:55:00
6:15 AM,37.4,37.4,100,30.10,10.0,Calm,Calm,-,N/A,,Clear,0,2013-05-13 10:15:00
6:35 AM,39.2,37.4,93,30.10,10.0,Calm,Calm,-,N/A,,Clear,0,2013-05-13 10:35:00
6:55 AM,41.0,39.2,93,30.10,10.0,Calm,Calm,-,N/A,,Clear,0,2013-05-13 10:55:00
7:15 AM,42.8,41.0,93,30.11,10.0,SSE,4.6,-,N/A,,Clear,150,2013-05-13 11:15:00
7:35 AM,44.6,42.8,93,30.11,10.0,Calm,Calm,-,N/A,,Clear,0,2013-05-13 11:35:00
8:50 AM,53.6,33.8,47,30.13,10.0,WNW,6.9,-,N/A,,Clear,300,2013-05-13 12:50:00
10:50 AM,57.2,28.4,33,30.13,10.0,West,11.5,19.6,N/A,,Scattered Clouds,270,2013-05-13 14:50:00
1:45 PM,57.2,24.8,29,30.09,10.0,NW,12.7,-,N/A,,Partly Cloudy,310,2013-05-13 17:45:00
5:45 PM,59.0,28.4,31,30.06,10.0,NW,9.2,19.6,N/A,,Scattered Clouds,320,2013-05-13 21:45:00
10:15 PM,42.8,37.4,81,30.16,10.0,NW,3.5,-,N/A,,Clear,310,2013-05-14 02:15:00
10:35 PM,44.6,35.6,71,30.16,10.0,WNW,5.8,-,N/A,,Clear,290,2013-05-14 02:35:00
10:55 PM,44.6,35.6,71,30.17,10.0,Calm,Calm,-,N/A,,Clear,0,2013-05-14 02:55:00
11:15 PM,39.2,39.2,100,30.17,10.0,Calm,Calm,-,N/A,,Clear,0,2013-05-14 03:15:00
11:35 PM,39.2,39.2,100,30.18,10.0,Calm,Calm,-,N/A,,Clear,0,2013-05-14 03:35:00
11:55 PM,39.2,39.2,100,30.18,10.0,Calm,Calm,-,N/A,,Clear,0,2013-05-14 03:55:00